Tracking 28520 objects as of 29-Feb-2024
HD Live streaming from Space Station
objects crossing your sky now

COSMOS 1823 DEB

Track COSMOS 1823 DEB now!
10-day predictions


NORAD ID: 18757
Int'l Code: 1987-020AJ
Perigee: 1,109.2 km
Apogee: 1,223.0 km
Inclination: 73.7 °
Period: 108.5 minutes
Semi major axis: 7537 km
RCS: 0.0664 m2 (small)
Launch date: February 20, 1987
Source: Commonwealth of Independent States (former USSR) (CIS)
Launch site: PLESETSK MISSILE AND SPACE COMPLEX (PKMTR)

Note: This is SATELLITE DEBRIS
Your satellite tracking list
Your tracking list is empty




NASA's NSSDC Master Catalog

Two Line Element Set (TLE):
1 18757U 87020AJ  24059.63240184  .00006722  00000-0  14918-1 0  9994
2 18757  73.7153 132.7369 0075507 256.3047 225.9775 13.26769677688001
Source of the keplerian elements: AFSPC